Location: Banff
(51.1667°N, 115.5667°W)
Time: 07:40:39
(UTC+00:00)

S-56A Canister/Altair - Pass Details

Date: 28 November 2020
Orbit: 633 x 2499 km, 38.9° (Epoch: 21 January)

Event Time Altitude Azimuth Distance (km) Brightness Sun altitude
Rises 02:08:11 0° 205° (SSW) 5,665 12.4 -22.3°
Reaches altitude 10° 02:13:44 10° 190° (S) 4,330 11.5 -23.2°
Maximum altitude 02:20:27 18° 153° (SSE) 3,230 10.5 -24.2°
Enters shadow 02:22:17 17° 139° (SE) 3,154 10.3 -24.5°
Drops below altitude 10° 02:25:53 10° 114° (ESE) 3,388 - -25.1°
Sets 02:29:27 0° 96° (E) 4,047 - -25.7°
